Location: Theydon Bois
(51.6750°N, 0.1050°E)
Time: 11:39:55
(UTC+00:00)

Envisat - Pass Details

Date: 16 December 2019
Orbit: 764 x 766 km, 98.1° (Epoch: 18 January)

Event Time Altitude Azimuth Distance (km) Brightness Sun altitude
Rises 05:54:57 0° 22° (NNE) 3,246 6.3 -18.1°
Reaches altitude 10° 05:57:38 10° 35° (NE) 2,314 5.7 -17.7°
Maximum altitude 06:01:54 26° 92° (E) 1,465 5.3 -17.0°
Drops below altitude 10° 06:06:08 10° 149° (SSE) 2,298 6.2 -16.4°
Sets 06:08:47 0° 162° (SSE) 3,219 6.8 -16.0°
